CW6351 Weather Reports


time (UTC)temp
C
wind
direction
speed
KPH
gust
KPH
rain 1hr
cm
rain 24hr
cm
rain mn
cm
humidity
%
barometer
mb
20260906190815 25 113 16.1 20.9 0.00 0.00 0.00 77 1019.1
20260906185815 25 135 16.1 22.5 0.00 0.00 0.00 76 1019.0
20260906184815 25 135 14.5 17.7 0.00 0.00 0.00 76 1019.2
20260906183835 25 135 17.7 20.9 0.00 0.00 0.00 76 1019.4
20260906182815 25 135 12.9 14.5 0.00 0.00 0.00 75 1019.1
20260906181815 26 135 19.3 22.5 0.00 0.00 0.00 74 1019.3
20260906180815 26 158 14.5 19.3 0.00 0.00 0.00 76 1019.4
20260906175815 26 135 17.7 24.1 0.00 0.00 0.00 74 1019.4
20260906174815 26 90 19.3 27.4 0.00 0.00 0.00 74 1019.3
20260906173835 26 158 17.7 20.9 0.00 0.00 0.00 74 1019.2
20260906172815 26 135 14.5 19.3 0.00 0.00 0.00 75 1019.2
20260906171815 26 135 12.9 17.7 0.00 0.00 0.00 74 1019.4
20260906170835 25 135 16.1 20.9 0.00 0.00 0.00 75 1019.5
20260906165815 25 135 16.1 22.5 0.00 0.00 0.00 77 1019.6
20260906164815 25 135 20.9 24.1 0.00 0.00 0.00 76 1019.6
20260906163815 25 135 11.3 17.7 0.00 0.00 0.00 79 1019.7
20260906162817 25 158 14.5 25.7 0.00 0.00 0.00 77 1019.7
20260906161817 25 113 16.1 20.9 0.00 0.00 0.00 79 1020.0
20260906160817 24 135 19.3 24.1 0.00 0.00 0.00 79 1020.0
20260906155817 24 135 14.5 19.3 0.00 0.00 0.00 80 1020.0
20260906154817 23 113 14.5 16.1 0.00 0.00 0.00 81 1020.1
20260906153817 23 135 14.5 20.9 0.00 0.00 0.00 83 1020.4
20260906152817 23 158 12.9 16.1 0.00 0.00 0.00 84 1020.2
20260906151835 23 158 6.4 11.3 0.00 0.00 0.00 89 1020.3
20260906150836 22 135 16.1 19.3 0.00 0.00 0.00 94 1020.1
20260906145816 22 135 9.7 14.5 0.00 0.00 0.00 100 1020.1
20260906144835 21 113 11.3 12.9 0.00 0.00 0.00 100 1019.9
20260906143817 21 135 11.3 14.5 0.00 0.00 0.00 100 1020.2
20260906142816 21 113 11.3 14.5 0.00 0.00 0.00 100 1020.0
20260906141816 20 113 8.0 12.9 0.00 0.00 0.00 100 1019.9
20260906140816 20 68 4.8 6.4 0.00 0.00 0.00 100 1019.8
20260906135817 19 113 8.0 11.3 0.00 0.00 0.00 100 1019.8
20260906134816 19 135 9.7 12.9 0.00 0.00 0.00 100 1019.7
20260906133836 19 135 9.7 14.5 0.00 0.00 0.00 100 1019.6
20260906132816 18 113 12.9 16.1 0.00 0.00 0.00 100 1019.6
20260906131816 18 113 6.4 8.0 0.00 0.00 0.00 100 1019.7
20260906130816 18 113 9.7 14.5 0.00 0.00 0.00 100 1019.5
20260906125817 18 113 3.2 4.8 0.00 0.00 0.00 100 1019.7
20260906124816 18 113 6.4 11.3 0.00 0.00 0.00 100 1019.5
20260906123816 17 113 3.2 4.8 0.00 0.00 0.00 100 1019.6
20260906122816 17 90 1.6 3.2 0.00 0.00 0.00 100 1019.4
20260906121817 17 113 9.7 12.9 0.00 0.00 0.00 100 1019.2
20260906120816 17 90 4.8 6.4 0.00 0.00 0.00 100 1019.2
20260906115816 17 90 1.6 3.2 0.00 0.00 0.00 100 1019.2
20260906114816 17 68 4.8 8.0 0.00 0.00 0.00 100 1019.3
20260906113816 17 68 1.6 4.8 0.00 0.00 0.00 100 1019.4
20260906112816 17 90 1.6 3.2 0.00 0.00 0.00 100 1019.5
20260906111816 17 0.0 0.0 0.00 0.00 0.00 100 1019.3
20260906110816 17 0.0 3.2 0.00 0.00 0.00 100 1019.3
20260906105836 17 0.0 3.2 0.00 0.00 0.00 100 1019.3
20260906104816 17 0.0 0.0 0.00 0.00 0.00 100 1019.2
20260906103816 17 0.0 0.0 0.00 0.00 0.00 100 1019.3
20260906102816 17 0.0 0.0 0.00 0.00 0.00 100 1019.2
20260906101816 17 0.0 0.0 0.00 0.00 0.00 100 1019.3
20260906100816 17 90 3.2 4.8 0.00 0.00 0.00 100 1019.0
20260906095816 17 0.0 3.2 0.00 0.00 0.00 100 1018.9
20260906094816 17 90 3.2 6.4 0.00 0.00 0.00 100 1018.6
20260906093856 17 90 3.2 6.4 0.00 0.00 0.00 100 1018.6
20260906092816 17 113 4.8 6.4 0.00 0.00 0.00 100 1018.3
20260906091816 17 90 4.8 11.3 0.00 0.00 0.00 100 1018.5
20260906090816 17 113 4.8 6.4 0.00 0.00 0.00 100 1018.5
20260906085816 17 135 8.0 12.9 0.00 0.00 0.00 100 1018.6
20260906084836 17 90 4.8 9.7 0.00 0.00 0.00 100 1018.7
20260906083836 17 68 4.8 8.0 0.00 0.00 0.00 100 1018.7
20260906082836 17 45 1.6 3.2 0.00 0.00 0.00 100 1018.7
20260906081816 17 0.0 1.6 0.00 0.00 0.00 100 1018.7
20260906080816 17 90 3.2 4.8 0.00 0.00 0.00 100 1018.5
20260906075816 17 68 1.6 3.2 0.00 0.00 0.00 100 1018.6
20260906074816 17 45 1.6 4.8 0.00 0.00 0.00 100 1018.5
20260906073816 17 45 1.6 4.8 0.00 0.00 0.00 100 1018.5
20260906072836 17 68 3.2 4.8 0.00 0.00 0.00 100 1018.6
20260906071816 17 68 1.6 3.2 0.00 0.00 0.00 100 1018.6
20260906070816 17 45 4.8 8.0 0.00 0.00 0.00 99 1018.8
20260906065816 17 90 1.6 4.8 0.00 0.00 0.00 99 1019.0
20260906064816 17 45 1.6 6.4 0.00 0.00 0.00 99 1019.0
20260906063816 18 90 3.2 6.4 0.00 0.00 0.00 99 1019.0
20260906062816 18 113 3.2 6.4 0.00 0.00 0.00 99 1019.0
20260906061816 18 45 3.2 8.0 0.00 0.00 0.00 98 1018.9
20260906060816 18 0.0 1.6 0.00 0.00 0.00 98 1018.9
20260906055815 18 68 3.2 4.8 0.00 0.00 0.00 98 1019.1
20260906054836 18 90 1.6 3.2 0.00 0.00 0.00 98 1018.9
20260906053816 18 68 1.6 4.8 0.00 0.00 0.00 97 1018.8
20260906052815 18 45 1.6 3.2 0.00 0.00 0.00 97 1018.8
20260906051816 18 68 4.8 6.4 0.00 0.00 0.00 97 1018.7
20260906050815 18 90 3.2 6.4 0.00 0.00 0.00 97 1018.6
20260906045816 18 113 3.2 8.0 0.00 0.00 0.00 96 1018.7
20260906044816 18 90 1.6 3.2 0.00 0.00 0.00 96 1018.8
20260906043816 19 0.0 0.0 0.00 0.00 0.00 96 1018.9
20260906042816 19 90 3.2 4.8 0.00 0.00 0.00 95 1018.9
20260906041816 19 90 1.6 3.2 0.00 0.00 0.00 95 1018.8
20260906040816 19 68 1.6 3.2 0.00 0.00 0.00 95 1018.7
20260906035816 19 90 3.2 4.8 0.00 0.00 0.00 95 1018.8
20260906034816 20 0.0 0.0 0.00 0.00 0.00 95 1018.9
20260906033816 20 68 1.6 4.8 0.00 0.00 0.00 95 1018.8
20260906032816 20 90 3.2 4.8 0.00 0.00 0.00 95 1018.7
20260906031816 20 90 3.2 6.4 0.00 0.00 0.00 96 1018.5
20260906030816 19 0.0 3.2 0.00 0.00 0.00 96 1018.8
20260906025816 19 0.0 0.0 0.00 0.00 0.00 95 1018.8
20260906024815 19 0.0 0.0 0.00 0.00 0.00 95 1018.7
20260906023815 20 68 1.6 4.8 0.00 0.00 0.00 95 1018.8
20260906022816 20 68 1.6 1.6 0.00 0.00 0.00 94 1018.7
20260906021815 20 0.0 0.0 0.00 0.00 0.00 94 1018.8
20260906020816 20 45 1.6 3.2 0.00 0.00 0.00 93 1018.7
20260906015815 20 0.0 1.6 0.00 0.00 0.00 93 1018.4
20260906014836 20 0.0 1.6 0.00 0.00 0.00 92 1018.3
20260906013816 20 0.0 0.0 0.00 0.00 0.00 91 1017.8
20260906012835 20 0.0 0.0 0.00 0.00 0.00 90 1017.5
20260906011815 21 0.0 0.0 0.00 0.00 0.00 89 1017.4
20260906010816 21 0.0 0.0 0.00 0.00 0.00 88 1017.3
20260906005815 21 0.0 0.0 0.00 0.00 0.00 87 1017.0
20260906004855 22 0.0 0.0 0.00 0.00 0.00 86 1016.9
20260906003816 22 0.0 0.0 0.00 0.00 0.00 84 1016.5
20260906002815 22 0.0 1.6 0.00 0.00 0.00 82 1016.6
20260906001835 22 90 3.2 4.8 0.00 0.00 0.00 81 1016.1
20260906000815 23 90 3.2 3.2 0.00 0.00 0.00 80 1016.1
20260905235815 23 113 9.7 12.9 0.00 0.00 0.00 79 1016.1
20260905234815 23 90 8.0 11.3 0.00 0.00 0.00 78 1016.3
20260905233815 23 90 3.2 4.8 0.00 0.00 0.00 77 1016.2
20260905232815 23 113 6.4 12.9 0.00 0.00 0.00 76 1016.1
20260905231815 23 113 4.8 6.4 0.00 0.00 0.00 76 1016.1
20260905230815 23 113 14.5 17.7 0.00 0.00 0.00 75 1016.2
20260905225815 24 90 3.2 4.8 0.00 0.00 0.00 74 1016.4
20260905224815 24 45 8.0 14.5 0.00 0.00 0.00 75 1016.6
20260905223815 25 113 9.7 14.5 0.00 0.00 0.00 73 1016.7
20260905222815 25 113 9.7 14.5 0.00 0.00 0.00 73 1016.7
20260905221815 25 90 4.8 11.3 0.00 0.00 0.00 72 1016.8
20260905220835 25 68 6.4 8.0 0.00 0.00 0.00 73 1016.7
20260905215815 25 68 9.7 17.7 0.00 0.00 0.00 72 1016.7
20260905214815 25 90 11.3 19.3 0.00 0.00 0.00 72 1016.8
20260905213815 25 68 9.7 20.9 0.00 0.00 0.00 72 1017.0
20260905212815 25 90 9.7 12.9 0.00 0.00 0.00 71 1017.2
20260905211815 25 90 6.4 11.3 0.00 0.00 0.00 73 1017.3
20260905210815 25 113 16.1 20.9 0.00 0.00 0.00 74 1017.3
20260905205815 25 113 12.9 19.3 0.00 0.00 0.00 75 1017.7
20260905204815 25 135 17.7 25.7 0.00 0.00 0.00 76 1017.5
20260905203815 25 90 12.9 20.9 0.00 0.00 0.00 74 1017.6
20260905202815 25 113 16.1 20.9 0.00 0.00 0.00 73 1017.7
20260905201815 25 90 4.8 6.4 0.00 0.00 0.00 74 1017.9
20260905200815 25 113 11.3 16.1 0.00 0.00 0.00 76 1018.1
20260905195835 24 90 4.8 8.0 0.00 0.00 0.00 74 1018.4
20260905194815 24 113 9.7 12.9 0.00 0.00 0.00 75 1018.5
20260905193815 24 113 6.4 11.3 0.00 0.00 0.00 79 1019.0
20260905192815 23 68 1.6 3.2 0.00 0.00 0.00 79 1018.7
20260905191815 23 68 3.2 4.8 0.00 0.00 0.00 78 1018.7